EW6790 Weather Reports


time (UTC)temp
F
wind
direction
speed
knots
gust
knots
rain 1hr
in
rain 24hr
in
rain mn
in
humidity
%
barometer
mb
20260506200022 49 321 3.5 8.7 0.00 0.00 0.00 45 1016.9
20260506194520 47 307 6.1 14.8 0.00 0.00 0.00 45 1017.0
20260506193100 47 316 4.3 8.7 0.00 0.00 0.00 45 1017.1
20260506191559 47 354 3.5 10.4 0.00 0.00 0.00 45 1017.1
20260506190038 47 304 5.2 11.3 0.00 0.00 0.00 47 1017.2
20260506184536 46 328 2.6 7.8 0.00 0.00 0.00 48 1017.3
20260506183017 45 343 5.2 10.4 0.00 0.00 0.00 49 1017.4
20260506181514 45 289 3.5 10.4 0.00 0.00 0.00 49 1017.4
20260506180055 45 323 4.3 11.3 0.00 0.00 0.00 49 1017.5
20260506174600 44 295 2.6 7.8 0.00 0.00 0.00 50 1017.7
20260506173034 44 299 3.5 6.1 0.00 0.00 0.00 50 1017.7
20260506171534 43 314 7.0 13.0 0.00 0.00 0.00 49 1017.7
20260506170020 44 302 4.3 11.3 0.00 0.00 0.00 50 1017.7
20260506164517 43 294 3.5 11.3 0.00 0.00 0.00 51 1017.6
20260506163014 42 295 7.0 11.3 0.00 0.00 0.00 51 1017.7
20260506161511 42 301 4.3 13.0 0.00 0.00 0.00 52 1017.7
20260506160010 42 329 5.2 12.2 0.00 0.00 0.00 52 1017.8
20260506154508 43 305 3.5 13.9 0.00 0.00 0.00 53 1017.6
20260506153007 42 327 1.7 6.1 0.00 0.00 0.00 56 1017.6
20260506151506 42 304 2.6 7.0 0.00 0.00 0.00 54 1017.4
20260506150058 42 310 3.5 10.4 0.00 0.00 0.00 56 1017.5
20260506144602 42 308 2.6 6.1 0.00 0.00 0.00 58 1017.3
20260506143030 42 304 3.5 7.8 0.00 0.00 0.00 58 1017.3
20260506141529 41 301 1.7 7.0 0.00 0.00 0.00 60 1017.4
20260506140011 40 295 2.6 6.1 0.00 0.00 0.00 61 1017.2
20260506134511 40 306 0.9 5.2 0.00 0.00 0.00 61 1017.3
20260506133118 39 262 2.6 5.2 0.00 0.00 0.00 60 1017.2
20260506131551 39 284 0.0 5.2 0.00 0.00 0.00 65 1017.1
20260506130032 38 290 0.0 2.6 0.00 0.00 0.00 66 1017.0
20260506124529 37 304 0.0 1.7 0.00 0.00 0.00 68 1016.8
20260506123009 0 0.0 0.0 0.00 0.00 0.00 1016.6
20260506121504 0 0.0 0.0 0.00 0.00 0.00 1016.6
20260506120106 0 0.0 0.0 0.00 0.00 0.00 1016.4
20260506114538 0 0.0 0.0 0.00 0.00 0.00 1016.3
20260506113038 0 0.0 0.0 0.00 0.00 0.00 1015.8
20260506111512 0 0.0 0.0 0.00 0.00 0.00 1015.8
20260506110009 33 336 0.0 0.9 0.00 0.00 0.00 72 1015.6
20260506104559 34 330 0.0 2.6 0.00 0.00 0.00 71 1015.3
20260506103049 35 341 0.0 2.6 0.00 0.00 0.00 70 1015.2
20260506101534 34 308 0.0 1.7 0.00 0.00 0.00 71 1015.6
20260506100034 34 285 0.0 0.9 0.00 0.00 0.00 71 1015.6
20260506094514 33 285 0.0 1.7 0.00 0.00 0.00 72 1015.5
20260506093011 33 278 0.0 1.7 0.00 0.00 0.00 71 1015.4
20260506091551 34 279 0.0 1.7 0.00 0.00 0.00 69 1015.4
20260506090050 34 311 0.0 1.7 0.00 0.00 0.00 68 1015.2
20260506084539 34 330 0.0 2.6 0.00 0.00 0.00 68 1014.7
20260506083034 34 310 0.0 1.7 0.00 0.00 0.00 68 1014.9
20260506081531 34 310 0.0 0.0 0.00 0.00 0.00 68 1014.7
20260506073026 34 310 0.0 0.9 0.00 0.00 0.00 67 1014.8
20260506071525 34 310 0.0 0.0 0.00 0.00 0.00 67 1014.6
20260506061549 37 326 1.7 4.3 0.00 0.00 0.00 61 1014.5
20260506044543 40 330 1.7 4.3 0.00 0.00 0.00 55 1013.7
20260506043024 41 320 2.6 6.1 0.00 0.00 0.00 54 1013.8
20260506041503 42 311 3.5 7.0 0.00 0.00 0.00 52 1013.9
20260506040100 43 338 2.6 7.0 0.00 0.00 0.00 51 1013.7
20260506040001 43 334 2.6 7.0 0.00 0.00 0.00 51 1013.8
20260506034555 44 311 3.5 8.7 0.00 0.00 0.00 50 1013.6
20260506033036 44 319 4.3 10.4 0.00 0.00 0.00 49 1013.4
20260506031527 45 342 5.2 8.7 0.00 0.00 0.00 48 1013.4
20260506030011 46 340 4.3 9.6 0.00 0.00 0.00 47 1013.3
20260506024555 46 335 3.5 7.8 0.00 0.00 0.00 46 1013.1
20260506023057 46 347 4.3 11.3 0.00 0.00 0.00 46 1012.7
20260506021531 47 323 7.8 13.9 0.00 0.00 0.00 44 1012.5
20260506020030 47 304 2.6 7.0 0.00 0.00 0.00 44 1012.3
20260506014507 47 349 3.5 8.7 0.00 0.00 0.00 43 1012.0
20260506013006 48 279 5.2 10.4 0.00 0.00 0.00 40 1011.8
20260506011545 48 297 3.5 10.4 0.00 0.00 0.00 40 1011.7
20260506010053 49 329 7.0 13.0 0.00 0.00 0.00 39 1011.5
20260506004522 49 302 3.5 10.4 0.00 0.00 0.00 38 1011.3
20260506003022 50 309 5.2 12.2 0.00 0.00 0.00 38 1011.3
20260506001606 50 340 4.3 11.3 0.00 0.00 0.00 38 1011.1
20260506000059 50 311 3.5 12.2 0.00 0.00 0.00 37 1010.9
20260505234539 51 321 4.3 11.3 0.00 0.00 0.00 37 1010.8
20260505233045 51 345 7.0 11.3 0.00 0.00 0.00 36 1010.7
20260505231520 51 316 4.3 9.6 0.00 0.00 0.00 36 1010.7
20260505230025 52 300 4.3 12.2 0.00 0.00 0.00 35 1010.7
20260505224501 52 307 4.3 11.3 0.00 0.00 0.00 34 1010.6
20260505223004 52 307 5.2 13.0 0.00 0.00 0.00 35 1010.6
20260505221544 52 307 7.0 16.5 0.00 0.00 0.00 35 1010.5
20260505220043 52 292 5.2 10.4 0.00 0.00 0.00 36 1010.5
20260505214524 53 331 5.2 13.9 0.00 0.00 0.00 33 1010.5
20260505213027 53 322 4.3 13.9 0.00 0.00 0.00 34 1010.5
20260505211504 53 301 3.5 13.9 0.00 0.00 0.00 35 1010.7
20260505210003 53 300 5.2 11.3 0.00 0.00 0.00 35 1010.7
20260505204550 52 327 2.6 13.0 0.00 0.00 0.00 36 1010.7
20260505203049 52 309 2.6 9.6 0.00 0.00 0.00 37 1010.8
20260505201555 52 291 2.6 19.1 0.00 0.00 0.00 39 1010.9